[[{"header":{"parameterUnit":"m.s-1","parameterCategory":1,"la1":30.2991,"la2":30.254,"lo1":-89.0895,"lo2":-89.0444,"dy":0.0017,"dx":0.0017,"nx":28,"ny":28,"refTime":"2025-01-05T09:00:00:Z","depth":0,"parameterNumber":2,"parameterNumberName":"U-component_of_WINDS"},"data":[0,0,0,0,0,0,0,0,0,0,0,0,0,0,0,0,0,0,0,0,0,0,0,0,0,0,0,0,0,0,0,0,0,0,0,0,0,0,0,0,0,0,0,0,0,0,0,0,0,0,0,0,0,0,0,0,0,0,-4.3596,-4.3597,0,-4.3666,-4.3666,-4.3667,-4.3677,-4.3676,-4.3675,-4.3675,-4.3744,-4.3747,-4.3749,0,0,0,0,0,0,0,0,0,0,0,0,0,-4.3471,-4.3473,-4.3596,-4.3597,-4.3598,-4.3665,-4.3666,-4.3667,-4.3677,-4.3676,-4.3675,-4.3674,-4.3743,-4.3746,-4.3749,0,0,0,0,0,0,0,0,0,0,0,0,0,-4.3531,-4.3474,-4.3596,-4.3611,-4.3613,-4.3665,-4.3666,-4.3668,-4.3677,-4.3676,-4.3675,-4.3674,-4.3742,-4.3746,-4.375,-4.3792,0,0,-4.3761,-4.3763,0,0,0,0,0,0,0,0,-4.3528,-4.3536,-4.3608,-4.361,-4.3612,-4.3661,-4.3648,-4.3709,-4.3677,-4.3652,-4.3675,-4.3673,-4.3717,-4.3723,-4.3738,-4.3795,-4.3798,-4.3761,-4.3763,-4.3765,-4.3766,0,0,0,0,0,0,0,-4.3523,-4.3533,-4.3623,-4.3609,-4.3611,-4.3614,-4.3621,-4.3659,-4.3689,-4.3654,-4.3655,-4.3663,-4.3718,-4.3735,-4.374,-4.3799,-4.3761,-4.3764,-4.3767,-4.3768,-4.3895,-4.3896,0,0,0,0,0,0,-4.3517,-4.3529,-4.3621,-4.3626,-4.3567,-4.3617,-4.3625,-4.3647,-4.3689,-4.3695,-4.3664,-4.3664,-4.3729,-4.3736,-4.3742,-4.3794,-4.3765,-4.3768,-4.3771,-4.3894,-4.3895,-4.3896,0,0,0,0,0,0,-4.3514,-4.3525,-4.3618,-4.3578,-4.359,-4.362,-4.3644,-4.3648,-4.3665,-4.3697,-4.3702,-4.3675,-4.3728,-4.3737,-4.378,-4.3797,-4.377,-4.3774,-4.3892,-4.3894,-4.3896,-4.3898,0,0,0,0,0,0,-4.351,-4.3524,-4.354,-4.3578,-4.3592,-4.3655,-4.3645,-4.365,-4.3671,-4.3671,-4.3708,-4.3713,-4.3728,-4.3774,-4.3783,-4.3801,-4.3776,-4.3891,-4.3893,-4.3895,-4.3897,-4.39,-4.3903,0,0,0,0,0,-4.3506,-4.3538,-4.3541,-4.3552,-4.3613,-4.3656,-4.3664,-4.368,-4.3672,-4.3689,-4.371,-4.3712,-4.3794,-4.3778,-4.3789,-4.3808,-4.389,-4.3893,-4.3895,-4.3895,-4.3899,-4.3902,0,0,0,0,0,0,-4.35,-4.3543,-4.3547,-4.3592,-4.362,-4.3657,-4.3678,-4.3684,-4.3714,-4.3713,-4.3732,-4.374,-4.3782,-4.38,-4.3782,-4.3852,-4.3841,-4.3846,-4.3838,-4.3842,-4.3845,-4.3838,-4.3779,0,0,0,0,0,-4.3504,-4.3535,-4.3571,-4.3608,-4.3622,-4.3648,-4.3667,-4.3678,-4.3707,-4.3719,-4.3743,-4.3771,-4.3804,-4.3824,-4.3856,-4.3901,-4.3908,-4.3919,-4.3922,-4.3924,-4.3927,-4.3952,-4.3957,-4.3905,-4.3905,-4.3905,0,0,-4.3512,-4.354,-4.3558,-4.3607,-4.363,-4.3662,-4.3657,-4.3691,-4.3715,-4.3724,-4.3765,-4.3784,-4.3818,-4.3861,-4.3882,-4.3877,-4.3944,-4.3928,-4.3929,-4.3931,-4.3955,-4.396,-4.3965,-4.3907,-4.3906,-4.3906,0,0,-4.3543,-4.3568,-4.36,-4.3624,-4.366,-4.3677,-4.3685,-4.3722,-4.3735,-4.3777,-4.3785,-4.3814,-4.3869,-4.3892,-4.3911,-4.3953,-4.3956,-4.3963,-4.3977,-4.4001,-4.4005,-4.4009,-4.4023,-4.4028,-4.3967,-4.3967,-4.3967,0,-4.3549,-4.3597,-4.3616,-4.365,-4.3671,-4.3683,-4.3716,-4.3738,-4.3782,-4.3796,-4.3791,-4.3861,-4.3884,-4.3933,-4.3944,-4.3959,-4.3969,-4.3958,-4.4003,-4.4007,-4.4011,-4.4024,-4.403,-4.3967,-4.3967,-4.3967,-4.3967,0,-4.3602,-4.3635,-4.3657,-4.37,-4.3724,-4.3757,-4.3781,-4.3804,-4.3813,-4.3831,-4.3874,-4.3903,-4.394,-4.3954,-4.3963,-4.4005,-4.4001,-4.4,-4.3989,-4.4016,-4.4029,-4.4034,-4.3968,-4.3968,-4.3968,-4.3968,0,0,-4.3628,-4.3682,-4.369,-4.371,-4.3751,-4.3777,-4.3811,-4.3848,-4.3866,-4.3897,-4.3926,-4.3973,-4.3973,-4.3994,-4.4007,-4.4028,-4.4059,-4.4025,-4.4026,-4.4028,-4.4106,-4.4105,-4.411,-4.4063,-4.4064,-4.4065,-4.4103,0,-4.3663,-4.3723,-4.3743,-4.3793,-4.3824,-4.3837,-4.3867,-4.3895,-4.3914,-4.3943,-4.3963,-4.3996,-4.3993,-4.4007,-4.4029,-4.405,-4.4074,-4.4048,-4.4088,-4.4089,-4.4077,-4.4117,-4.4116,-4.4151,-4.4108,-4.4109,-4.4109,0,-4.371,-4.3742,-4.3796,-4.3833,-4.3847,-4.3873,-4.3909,-4.3937,-4.397,-4.3982,-4.4008,-4.4019,-4.4055,-4.4045,-4.4094,-4.4076,-4.4095,-4.4108,-4.411,-4.4112,-4.4099,-4.4119,-4.4162,-4.4166,-4.4118,-4.4117,-4.4117,0,-4.3722,-4.3779,-4.3818,-4.3835,-4.388,-4.3898,-4.3918,-4.395,-4.3971,-4.4003,-4.4017,-4.4053,-4.4072,-4.41,-4.412,-4.4111,-4.4168,-4.416,-4.4178,-4.4178,-4.4188,-4.4186,-4.4232,-4.4203,-4.4203,-4.4203,-4.4203,0,-4.3757,-4.3789,-4.3824,-4.3848,-4.3884,-4.3907,-4.3943,-4.3963,-4.3992,-4.402,-4.4034,-4.406,-4.4087,-4.4117,-4.4134,-4.4172,-4.4181,-4.4191,-4.4195,-4.4189,-4.4187,-4.4199,-4.4196,-4.4204,-4.4204,-4.4204,-4.4203,0,-4.3775,-4.38,-4.3844,-4.3884,-4.3895,-4.392,-4.3954,-4.3978,-4.3998,-4.4033,-4.4043,-4.4074,-4.411,-4.4135,-4.4181,-4.4192,-4.4233,-4.4237,-4.4222,-4.4223,-4.424,-4.4237,-4.4293,-4.4301,-4.4268,-4.4268,-4.4269,0,-4.3795,-4.382,-4.3863,-4.3883,-4.3903,-4.3935,-4.3957,-4.3981,-4.4004,-4.4044,-4.4063,-4.41,-4.4131,-4.4188,-4.4215,-4.425,-4.4254,-4.4271,-4.4259,-4.4252,-4.4252,-4.425,-4.4252,-4.4272,-4.4272,-4.4273,-4.4273,0,-4.3826,-4.3838,-4.3869,-4.3906,-4.3932,-4.3962,-4.3991,-4.4007,-4.4036,-4.4061,-4.4098,-4.4122,-4.417,-4.4206,-4.4245,-4.4265,-4.4274,-4.4277,-4.4283,-4.4276,-4.4265,-4.4269,-4.4225,-4.4275,-4.4275,-4.4274,-4.4274,-4.4274,-4.3845,-4.3868,-4.3902,-4.3936,-4.3962,-4.3989,-4.4014,-4.4037,-4.4069,-4.4109,-4.4122,-4.4161,-4.4194,-4.4247,-4.4268,-4.4299,-4.4297,-4.4306,-4.4308,-4.4309,-4.4308,-4.4262,-4.4306,-4.4306,-4.4306,-4.4306,-4.4306,0,-4.3876,-4.3899,-4.3931,-4.3972,-4.4,-4.4007,-4.4041,-4.4063,-4.4097,-4.4127,-4.4158,-4.4201,-4.4237,-4.4267,-4.4305,-4.4323,-4.4328,-4.4332,-4.433,-4.4334,-4.4308,-4.4299,-4.4327,-4.4327,-4.4327,-4.4327,-4.4327,-4.4327,-4.3895,-4.3934,-4.395,-4.4001,-4.4024,-4.4062,-4.408,-4.4106,-4.4131,-4.4178,-4.4208,-4.4228,-4.4259,-4.4299,-4.4332,-4.434,-4.4353,-4.4355,-4.4364,-4.4339,-4.4336,-4.4334,-4.4325,-4.4358,-4.4358,-4.4387,-4.4388,-4.4388]},{"header":{"parameterUnit":"m.s-1","parameterCategory":1,"la1":30.2991,"la2":30.254,"lo1":-89.0895,"lo2":-89.0444,"dy":0.0017,"dx":0.0017,"nx":28,"ny":28,"refTime":"2025-01-05T09:00:00:Z","depth":0,"parameterNumber":3,"parameterNumberName":"V-component_of_WINDS"},"data":[0,0,0,0,0,0,0,0,0,0,0,0,0,0,0,0,0,0,0,0,0,0,0,0,0,0,0,0,0,0,0,0,0,0,0,0,0,0,0,0,0,0,0,0,0,0,0,0,0,0,0,0,0,0,0,0,0,0,3.9574,3.9575,0,3.97,3.9702,3.9703,3.9667,3.9664,3.9661,3.9659,3.9792,3.9798,3.9804,0,0,0,0,0,0,0,0,0,0,0,0,0,3.9306,3.9311,3.9573,3.9575,3.9577,3.97,3.9702,3.9704,3.9667,3.9664,3.9661,3.9658,3.979,3.9798,3.9805,0,0,0,0,0,0,0,0,0,0,0,0,0,3.9427,3.9313,3.9573,3.9573,3.9575,3.97,3.9702,3.9704,3.9668,3.9664,3.966,3.9656,3.9788,3.9797,3.9806,3.994,0,0,3.9833,3.9837,0,0,0,0,0,0,0,0,3.942,3.9436,3.9572,3.9573,3.9575,3.9664,3.9657,3.9783,3.9669,3.9633,3.9659,3.9654,3.9753,3.9765,3.9797,3.9946,3.9952,3.9834,3.9839,3.9843,3.9846,0,0,0,0,0,0,0,3.9412,3.9431,3.9624,3.9574,3.9576,3.9569,3.9582,3.968,3.9713,3.9635,3.9633,3.9648,3.9753,3.9789,3.98,3.9954,3.9834,3.9842,3.9847,3.9851,4.0225,4.0229,0,0,0,0,0,0,3.9401,3.9424,3.962,3.9628,3.9486,3.9577,3.9591,3.9639,3.9712,3.9719,3.9652,3.9646,3.9775,3.979,3.9805,3.997,3.9843,3.9852,3.9857,4.022,4.0226,4.0231,0,0,0,0,0,0,3.9396,3.9419,3.9615,3.9525,3.955,3.9586,3.964,3.9644,3.9679,3.9724,3.9731,3.9681,3.9773,3.9792,3.9907,3.9974,3.9856,3.9864,4.0215,4.0222,4.0228,4.03,0,0,0,0,0,0,3.9388,3.9417,3.9467,3.9527,3.9555,3.9714,3.9644,3.9649,3.9694,3.9688,3.9754,3.9761,3.9771,3.9894,3.9916,3.9984,3.9871,4.0209,4.0218,4.0226,4.0292,4.0309,4.0323,0,0,0,0,0,3.9379,3.9482,3.9469,3.9493,3.9617,3.9718,3.9734,3.9742,3.97,3.9752,3.9781,3.9759,3.9963,3.9906,3.9931,4.0003,4.0205,4.0215,4.0225,4.0285,4.0305,4.0323,0,0,0,0,0,0,3.9429,3.9489,3.9476,3.9601,3.9655,3.9711,3.9776,3.9763,3.983,3.9822,3.983,3.9845,3.9965,3.9995,3.9931,4.0139,4.0078,4.0094,4.0115,4.0135,4.015,4.0141,3.9878,0,0,0,0,0,3.9455,3.9529,3.9579,3.9684,3.9712,3.974,3.9784,3.9786,3.9842,3.9864,3.9902,3.9959,4.0036,4.0087,4.016,4.0296,4.0312,4.0358,4.0373,4.0385,4.04,4.0479,4.0501,4.0264,4.0264,4.0264,0,0,3.9508,3.9551,3.9597,3.9696,3.9737,3.9817,3.9759,3.9845,3.9905,3.9878,3.999,4.002,4.0084,4.0212,4.027,4.0241,4.0469,4.0399,4.0408,4.0416,4.0492,4.0514,4.0534,4.0271,4.027,4.0269,0,0,3.9648,3.9686,3.978,3.9823,3.9887,3.9905,3.9928,3.9988,4.0007,4.0119,4.0102,4.0175,4.0306,4.0354,4.0395,4.0557,4.0541,4.0581,4.0662,4.0739,4.0758,4.0775,4.0836,4.0858,4.0594,4.0594,4.0595,0,3.9707,3.9825,3.9831,3.992,3.9966,3.9944,4.0042,4.0084,4.0169,4.0202,4.0167,4.0335,4.0376,4.0517,4.0557,4.059,4.062,4.0574,4.0754,4.0771,4.0787,4.0846,4.0869,4.0599,4.0599,4.0598,4.0598,0,3.9898,3.998,4.0049,4.0132,4.0185,4.0278,4.03,4.0354,4.0352,4.0375,4.0493,4.0542,4.0627,4.066,4.0658,4.0802,4.0783,4.0751,4.0691,4.0814,4.087,4.0893,4.0606,4.0604,4.0603,4.0602,0,0,4.0072,4.0158,4.0184,4.0224,4.0293,4.0359,4.0452,4.0535,4.0583,4.0643,4.0724,4.0838,4.081,4.0858,4.0862,4.0929,4.106,4.089,4.0892,4.0923,4.1227,4.1252,4.1278,4.1049,4.1053,4.1056,4.1223,0,4.0221,4.0384,4.0394,4.0543,4.0622,4.0604,4.0687,4.074,4.0765,4.0837,4.0865,4.0947,4.0902,4.0932,4.0997,4.103,4.1122,4.1018,4.1128,4.1132,4.1116,4.1307,4.1333,4.1488,4.1244,4.1248,4.125,0,4.0416,4.0483,4.064,4.0703,4.0736,4.081,4.0889,4.0957,4.1019,4.1032,4.1087,4.1083,4.1182,4.1117,4.1256,4.1186,4.1232,4.1255,4.1261,4.1274,4.1201,4.1329,4.1537,4.1562,4.1284,4.1282,4.1279,0,4.0533,4.0662,4.0774,4.0807,4.0882,4.0935,4.0969,4.1027,4.1077,4.1147,4.1181,4.126,4.1305,4.1369,4.1388,4.1337,4.1529,4.1463,4.1546,4.1546,4.1589,4.1587,4.1812,4.1613,4.1613,4.1612,4.1612,0,4.07,4.0798,4.0828,4.0897,4.1008,4.1019,4.1129,4.116,4.1212,4.129,4.1278,4.1352,4.137,4.1448,4.1464,4.158,4.1599,4.1616,4.1619,4.1619,4.1617,4.1651,4.1642,4.1619,4.1617,4.1616,4.1615,0,4.085,4.0873,4.0995,4.1056,4.1074,4.1154,4.1208,4.1276,4.13,4.1398,4.1422,4.146,4.1552,4.1576,4.1685,4.1696,4.1834,4.1826,4.1813,4.1814,4.1897,4.1891,4.2154,4.2191,4.1965,4.1967,4.1969,0,4.0957,4.1032,4.1102,4.1153,4.1189,4.127,4.1322,4.1337,4.1392,4.147,4.153,4.162,4.1693,4.1841,4.188,4.1964,4.196,4.2047,4.1973,4.1972,4.1967,4.1964,4.1973,4.2062,4.2064,4.2066,4.2068,0,4.1145,4.1154,4.1228,4.1308,4.1371,4.1434,4.1496,4.1538,4.1562,4.1625,4.1718,4.1775,4.1887,4.1979,4.2065,4.2102,4.2092,4.209,4.2115,4.2117,4.2108,4.2119,4.1856,4.2085,4.2083,4.2082,4.2081,4.208,4.128,4.1348,4.1409,4.1493,4.1541,4.1599,4.1668,4.1701,4.1778,4.1871,4.1875,4.1977,4.2041,4.2156,4.2198,4.2281,4.2255,4.2289,4.2299,4.2308,4.2318,4.2092,4.2296,4.2296,4.2295,4.2295,4.2294,0,4.1471,4.151,4.1588,4.1674,4.1742,4.1723,4.1791,4.185,4.194,4.2,4.2073,4.2182,4.2271,4.2318,4.2407,4.2465,4.2462,4.2488,4.2486,4.2496,4.2333,4.2305,4.2489,4.2489,4.2489,4.2489,4.2489,4.2489,4.1579,4.1695,4.1711,4.1851,4.189,4.199,4.2031,4.2086,4.2134,4.2257,4.2331,4.236,4.2416,4.251,4.2593,4.2604,4.264,4.267,4.2679,4.2526,4.2507,4.2488,4.2462,4.2676,4.2676,4.2836,4.2837,4.2838]}]]